Time,TemperatureF,DewpointF,PressureIn,WindDirection,WindDirectionDegrees,WindSpeedMPH,WindSpeedGustMPH,Humidity,HourlyPrecipIn,Conditions,Clouds,dailyrainin,SoftwareType,DateUTC
2013-03-25 00:03:00,40.0,-99.9,29.73,WNW,283,5.0,-999.0,-999,-99.99,,,-99.99,,2013-03-25 04:03:00,
2013-03-25 00:13:00,40.0,-99.9,29.73,WNW,283,5.0,-999.0,-999,-99.99,,,-99.99,,2013-03-25 04:13:00,
2013-03-25 00:23:00,39.0,-99.9,29.72,NNW,327,3.0,-999.0,-999,-99.99,,,-99.99,,2013-03-25 04:23:00,
2013-03-25 00:33:00,39.0,-99.9,29.72,NNW,327,3.0,-999.0,-999,-99.99,,,-99.99,,2013-03-25 04:33:00,
2013-03-25 00:43:00,39.0,-99.9,29.72,NNE,26,4.0,-999.0,-999,-99.99,,,-99.99,,2013-03-25 04:43:00,
2013-03-25 00:53:00,39.0,-99.9,29.72,NNE,26,4.0,-999.0,-999,-99.99,,,-99.99,,2013-03-25 04:53:00,
2013-03-25 01:03:00,39.0,-99.9,29.72,NNE,26,4.0,-999.0,-999,-99.99,,,-99.99,,2013-03-25 05:03:00,
2013-03-25 01:12:00,39.0,-99.9,29.72,NNE,26,4.0,-999.0,-999,-99.99,,,-99.99,,2013-03-25 05:12:00,
2013-03-25 01:22:00,38.0,-99.9,29.71,NE,44,5.0,-999.0,-999,-99.99,,,-99.99,,2013-03-25 05:22:00,
2013-03-25 01:33:00,38.0,-99.9,29.71,NE,44,5.0,-999.0,-999,-99.99,,,-99.99,,2013-03-25 05:33:00,
2013-03-25 01:42:00,38.0,-99.9,29.71,NE,38,4.0,-999.0,-999,-99.99,,,-99.99,,2013-03-25 05:42:00,
2013-03-25 01:53:00,38.0,-99.9,29.71,NE,38,4.0,-999.0,-999,-99.99,,,-99.99,,2013-03-25 05:53:00,
2013-03-25 02:02:00,38.0,-99.9,29.71,NE,38,4.0,-999.0,-999,-99.99,,,-99.99,,2013-03-25 06:02:00,
2013-03-25 02:12:00,38.0,-99.9,29.71,NE,38,4.0,-999.0,-999,-99.99,,,-99.99,,2013-03-25 06:12:00,
2013-03-25 02:22:00,37.0,-99.9,29.70,NNE,23,6.0,-999.0,-999,-99.99,,,-99.99,,2013-03-25 06:22:00,
2013-03-25 02:33:00,37.0,-99.9,29.70,NNE,23,6.0,-999.0,-999,-99.99,,,-99.99,,2013-03-25 06:33:00,
2013-03-25 02:43:00,37.0,-99.9,29.70,NNE,23,6.0,-999.0,-999,-99.99,,,-99.99,,2013-03-25 06:43:00,
2013-03-25 02:53:00,37.0,-99.9,29.69,NNE,27,6.0,-999.0,-999,-99.99,,,-99.99,,2013-03-25 06:53:00,
2013-03-25 03:02:00,37.0,-99.9,29.69,NNE,27,6.0,-999.0,-999,-99.99,,,-99.99,,2013-03-25 07:02:00,
2013-03-25 03:13:00,37.0,-99.9,29.69,NNE,27,6.0,-999.0,-999,-99.99,,,-99.99,,2013-03-25 07:13:00,
2013-03-25 03:22:00,36.0,-99.9,29.68,NNE,25,7.0,-999.0,-999,-99.99,,,-99.99,,2013-03-25 07:22:00,
2013-03-25 03:32:00,36.0,-99.9,29.68,NNE,25,7.0,-999.0,-999,-99.99,,,-99.99,,2013-03-25 07:32:00,
2013-03-25 03:42:00,36.0,-99.9,29.68,NNE,27,7.0,-999.0,-999,-99.99,,,-99.99,,2013-03-25 07:42:00,
2013-03-25 03:53:00,36.0,-99.9,29.68,NNE,27,7.0,-999.0,-999,-99.99,,,-99.99,,2013-03-25 07:53:00,
2013-03-25 04:03:00,36.0,-99.9,29.68,NNE,27,7.0,-999.0,-999,-99.99,,,-99.99,,2013-03-25 08:03:00,
2013-03-25 04:12:00,36.0,-99.9,29.68,NNE,27,7.0,-999.0,-999,-99.99,,,-99.99,,2013-03-25 08:12:00,
2013-03-25 04:23:00,37.0,-99.9,29.66,NE,36,6.0,-999.0,-999,-99.99,,,-99.99,,2013-03-25 08:23:00,
2013-03-25 04:32:00,37.0,-99.9,29.66,NE,36,6.0,-999.0,-999,-99.99,,,-99.99,,2013-03-25 08:32:00,
2013-03-25 04:43:00,37.0,-99.9,29.66,NE,46,8.0,-999.0,-999,-99.99,,,-99.99,,2013-03-25 08:43:00,
2013-03-25 04:52:00,37.0,-99.9,29.66,NE,46,8.0,-999.0,-999,-99.99,,,-99.99,,2013-03-25 08:52:00,
2013-03-25 05:02:00,37.0,-99.9,29.66,NE,46,8.0,-999.0,-999,-99.99,,,-99.99,,2013-03-25 09:02:00,
2013-03-25 05:13:00,37.0,-99.9,29.66,NE,46,8.0,-999.0,-999,-99.99,,,-99.99,,2013-03-25 09:13:00,
2013-03-25 05:22:00,37.0,-99.9,29.65,NE,36,8.0,-999.0,-999,-99.99,,,-99.99,,2013-03-25 09:22:00,
2013-03-25 05:33:00,37.0,-99.9,29.65,NE,36,8.0,-999.0,-999,-99.99,,,-99.99,,2013-03-25 09:33:00,
2013-03-25 05:43:00,37.0,-99.9,29.65,NE,36,8.0,-999.0,-999,-99.99,,,-99.99,,2013-03-25 09:43:00,
2013-03-25 05:53:00,37.0,-99.9,29.63,NE,52,8.0,-999.0,-999,-99.99,,,-99.99,,2013-03-25 09:53:00,
2013-03-25 06:03:00,37.0,-99.9,29.63,NE,52,8.0,-999.0,-999,-99.99,,,-99.99,,2013-03-25 10:03:00,
2013-03-25 06:12:00,37.0,-99.9,29.63,NE,52,8.0,-999.0,-999,-99.99,,,-99.99,,2013-03-25 10:12:00,
2013-03-25 06:23:00,38.0,-99.9,29.64,ENE,70,10.0,-999.0,-999,-99.99,,,-99.99,,2013-03-25 10:23:00,
2013-03-25 06:33:00,38.0,-99.9,29.64,ENE,70,10.0,-999.0,-999,-99.99,,,-99.99,,2013-03-25 10:33:00,
2013-03-25 06:43:00,38.0,-99.9,29.64,ENE,70,10.0,-999.0,-999,-99.99,,,-99.99,,2013-03-25 10:43:00,
2013-03-25 06:54:00,37.0,-99.9,29.63,NE,48,9.0,-999.0,-999,-99.99,,,-99.99,,2013-03-25 10:54:00,
2013-03-25 07:03:00,37.0,-99.9,29.63,NE,48,9.0,-999.0,-999,-99.99,,,-99.99,,2013-03-25 11:03:00,
2013-03-25 07:12:00,37.0,-99.9,29.63,NE,48,9.0,-999.0,-999,-99.99,,,-99.99,,2013-03-25 11:12:00,
2013-03-25 07:23:00,36.0,-99.9,29.63,NE,52,7.0,-999.0,-999,-99.99,,,-99.99,,2013-03-25 11:23:00,
2013-03-25 07:33:00,36.0,-99.9,29.63,NE,52,7.0,-999.0,-999,-99.99,,,-99.99,,2013-03-25 11:33:00,
2013-03-25 07:43:00,36.0,-99.9,29.63,NE,52,7.0,-999.0,-999,-99.99,,,-99.99,,2013-03-25 11:43:00,
2013-03-25 07:53:00,37.0,-99.9,29.63,NE,55,9.0,-999.0,-999,-99.99,,,-99.99,,2013-03-25 11:53:00,
2013-03-25 08:03:00,37.0,-99.9,29.63,NE,55,9.0,-999.0,-999,-99.99,,,-99.99,,2013-03-25 12:03:00,
2013-03-25 08:13:00,37.0,-99.9,29.63,NE,55,9.0,-999.0,-999,-99.99,,,-99.99,,2013-03-25 12:13:00,
2013-03-25 08:23:00,39.0,-99.9,29.63,ENE,60,7.0,-999.0,-999,-99.99,,,-99.99,,2013-03-25 12:23:00,
2013-03-25 08:33:00,39.0,-99.9,29.63,ENE,60,7.0,-999.0,-999,-99.99,,,-99.99,,2013-03-25 12:33:00,
2013-03-25 08:43:00,39.0,-99.9,29.63,ENE,60,7.0,-999.0,-999,-99.99,,,-99.99,,2013-03-25 12:43:00,
2013-03-25 08:54:00,40.0,-99.9,29.63,East,88,6.0,-999.0,-999,-99.99,,,-99.99,,2013-03-25 12:54:00,
2013-03-25 09:03:00,40.0,-99.9,29.63,East,88,6.0,-999.0,-999,-99.99,,,-99.99,,2013-03-25 13:03:00,
2013-03-25 09:13:00,40.0,-99.9,29.63,East,88,6.0,-999.0,-999,-99.99,,,-99.99,,2013-03-25 13:13:00,
2013-03-25 09:23:00,41.0,-99.9,29.62,ENE,68,5.0,-999.0,-999,-99.99,,,-99.99,,2013-03-25 13:23:00,
2013-03-25 09:32:00,41.0,-99.9,29.62,ENE,68,5.0,-999.0,-999,-99.99,,,-99.99,,2013-03-25 13:32:00,
2013-03-25 09:43:00,41.0,-99.9,29.62,ENE,68,5.0,-999.0,-999,-99.99,,,-99.99,,2013-03-25 13:43:00,
2013-03-25 09:53:00,43.0,-99.9,29.61,East,89,10.0,-999.0,-999,-99.99,,,-99.99,,2013-03-25 13:53:00,
2013-03-25 10:03:00,43.0,-99.9,29.61,East,89,10.0,-999.0,-999,-99.99,,,-99.99,,2013-03-25 14:03:00,
2013-03-25 10:13:00,43.0,-99.9,29.61,East,89,10.0,-999.0,-999,-99.99,,,-99.99,,2013-03-25 14:13:00,
2013-03-25 10:23:00,44.0,-99.9,29.59,ESE,103,9.0,-999.0,-999,-99.99,,,-99.99,,2013-03-25 14:23:00,
2013-03-25 10:33:00,44.0,-99.9,29.59,ESE,103,9.0,-999.0,-999,-99.99,,,-99.99,,2013-03-25 14:33:00,
2013-03-25 10:43:00,45.0,-99.9,29.59,East,99,7.0,-999.0,-999,-99.99,,,-99.99,,2013-03-25 14:43:00,
2013-03-25 10:53:00,45.0,-99.9,29.59,East,99,7.0,-999.0,-999,-99.99,,,-99.99,,2013-03-25 14:53:00,
2013-03-25 11:03:00,45.0,-99.9,29.59,East,99,7.0,-999.0,-999,-99.99,,,-99.99,,2013-03-25 15:03:00,
2013-03-25 11:13:00,45.0,-99.9,29.59,East,99,7.0,-999.0,-999,-99.99,,,-99.99,,2013-03-25 15:13:00,
2013-03-25 11:23:00,45.0,-99.9,29.59,ESE,113,19.0,-999.0,-999,-99.99,,,-99.99,,2013-03-25 15:23:00,
2013-03-25 11:33:00,45.0,-99.9,29.59,ESE,113,19.0,-999.0,-999,-99.99,,,-99.99,,2013-03-25 15:33:00,
2013-03-25 11:43:00,46.0,-99.9,29.58,ESE,113,9.0,-999.0,-999,-99.99,,,-99.99,,2013-03-25 15:43:00,
2013-03-25 11:54:00,46.0,-99.9,29.58,ESE,113,9.0,-999.0,-999,-99.99,,,-99.99,,2013-03-25 15:54:00,
2013-03-25 12:03:00,46.0,-99.9,29.58,ESE,113,9.0,-999.0,-999,-99.99,,,-99.99,,2013-03-25 16:03:00,
2013-03-25 12:13:00,46.0,-99.9,29.58,ESE,113,9.0,-999.0,-999,-99.99,,,-99.99,,2013-03-25 16:13:00,
2013-03-25 12:24:00,47.0,-99.9,29.56,ESE,108,14.0,-999.0,-999,-99.99,,,-99.99,,2013-03-25 16:24:00,
2013-03-25 12:33:00,47.0,-99.9,29.56,ESE,108,14.0,-999.0,-999,-99.99,,,-99.99,,2013-03-25 16:33:00,
2013-03-25 12:44:00,47.0,-99.9,29.56,ESE,108,14.0,-999.0,-999,-99.99,,,-99.99,,2013-03-25 16:44:00,
2013-03-25 12:53:00,46.0,-99.9,29.55,ENE,66,9.0,-999.0,-999,-99.99,,,-99.99,,2013-03-25 16:53:00,
2013-03-25 13:03:00,46.0,-99.9,29.55,ENE,66,9.0,-999.0,-999,-99.99,,,-99.99,,2013-03-25 17:03:00,
2013-03-25 13:13:00,46.0,-99.9,29.55,ENE,66,9.0,-999.0,-999,-99.99,,,-99.99,,2013-03-25 17:13:00,
2013-03-25 13:24:00,46.0,-99.9,29.54,SE,128,8.0,-999.0,-999,-99.99,,,-99.99,,2013-03-25 17:24:00,
2013-03-25 13:33:00,46.0,-99.9,29.54,SE,128,8.0,-999.0,-999,-99.99,,,-99.99,,2013-03-25 17:33:00,
2013-03-25 13:43:00,45.0,-99.9,29.54,ESE,106,19.0,-999.0,-999,-99.99,,,-99.99,,2013-03-25 17:43:00,
2013-03-25 13:53:00,45.0,-99.9,29.54,ESE,106,19.0,-999.0,-999,-99.99,,,-99.99,,2013-03-25 17:53:00,
2013-03-25 14:04:00,45.0,-99.9,29.54,ESE,106,19.0,-999.0,-999,-99.99,,,-99.99,,2013-03-25 18:04:00,
2013-03-25 14:13:00,45.0,-99.9,29.54,ESE,106,19.0,-999.0,-999,-99.99,,,-99.99,,2013-03-25 18:13:00,
2013-03-25 14:23:00,45.0,-99.9,29.52,ESE,115,23.0,-999.0,-999,-99.99,,,-99.99,,2013-03-25 18:23:00,
2013-03-25 14:33:00,45.0,-99.9,29.52,ESE,115,23.0,-999.0,-999,-99.99,,,-99.99,,2013-03-25 18:33:00,
2013-03-25 14:43:00,45.0,-99.9,29.52,ESE,115,23.0,-999.0,-999,-99.99,,,-99.99,,2013-03-25 18:43:00,
2013-03-25 14:53:00,44.0,-99.9,29.49,ESE,111,14.0,-999.0,-999,-99.99,,,-99.99,,2013-03-25 18:53:00,
2013-03-25 15:03:00,44.0,-99.9,29.49,ESE,111,14.0,-999.0,-999,-99.99,,,-99.99,,2013-03-25 19:03:00,
2013-03-25 15:13:00,44.0,-99.9,29.49,ESE,111,14.0,-999.0,-999,-99.99,,,-99.99,,2013-03-25 19:13:00,
2013-03-25 15:23:00,44.0,-99.9,29.46,ESE,108,20.0,-999.0,-999,-99.99,,,-99.99,,2013-03-25 19:23:00,
2013-03-25 15:33:00,44.0,-99.9,29.46,ESE,108,20.0,-999.0,-999,-99.99,,,-99.99,,2013-03-25 19:33:00,
2013-03-25 15:43:00,43.0,-99.9,29.44,ESE,111,20.0,-999.0,-999,-99.99,,,-99.99,,2013-03-25 19:43:00,
2013-03-25 15:53:00,43.0,-99.9,29.44,ESE,111,20.0,-999.0,-999,-99.99,,,-99.99,,2013-03-25 19:53:00,
2013-03-25 16:02:00,43.0,-99.9,29.44,ESE,111,20.0,-999.0,-999,-99.99,,,-99.99,,2013-03-25 20:02:00,
2013-03-25 16:12:00,43.0,-99.9,29.44,ESE,111,20.0,-999.0,-999,-99.99,,,-99.99,,2013-03-25 20:12:00,
2013-03-25 16:22:00,43.0,-99.9,29.44,ESE,110,8.0,-999.0,-999,-99.99,,,-99.99,,2013-03-25 20:22:00,
2013-03-25 16:32:00,43.0,-99.9,29.44,ESE,110,8.0,-999.0,-999,-99.99,,,-99.99,,2013-03-25 20:32:00,
2013-03-25 16:43:00,42.0,-99.9,29.43,ESE,102,4.0,-999.0,-999,-99.99,,,-99.99,,2013-03-25 20:43:00,
2013-03-25 16:52:00,42.0,-99.9,29.43,ESE,102,4.0,-999.0,-999,-99.99,,,-99.99,,2013-03-25 20:52:00,
2013-03-25 17:03:00,42.0,-99.9,29.43,ESE,102,4.0,-999.0,-999,-99.99,,,-99.99,,2013-03-25 21:03:00,
2013-03-25 17:13:00,42.0,-99.9,29.43,ESE,102,4.0,-999.0,-999,-99.99,,,-99.99,,2013-03-25 21:13:00,
2013-03-25 17:22:00,42.0,-99.9,29.42,SE,126,14.0,-999.0,-999,-99.99,,,-99.99,,2013-03-25 21:22:00,
2013-03-25 17:33:00,42.0,-99.9,29.42,SE,126,14.0,-999.0,-999,-99.99,,,-99.99,,2013-03-25 21:33:00,
2013-03-25 17:43:00,42.0,-99.9,29.43,East,92,21.0,-999.0,-999,-99.99,,,-99.99,,2013-03-25 21:43:00,
2013-03-25 17:52:00,42.0,-99.9,29.43,East,92,21.0,-999.0,-999,-99.99,,,-99.99,,2013-03-25 21:52:00,
2013-03-25 18:04:00,42.0,-99.9,29.43,East,92,21.0,-999.0,-999,-99.99,,,-99.99,,2013-03-25 22:04:00,
2013-03-25 18:13:00,42.0,-99.9,29.43,East,92,21.0,-999.0,-999,-99.99,,,-99.99,,2013-03-25 22:13:00,
2013-03-25 18:24:00,42.0,-99.9,29.43,East,86,25.0,-999.0,-999,-99.99,,,-99.99,,2013-03-25 22:24:00,
2013-03-25 18:33:00,42.0,-99.9,29.43,East,86,25.0,-999.0,-999,-99.99,,,-99.99,,2013-03-25 22:33:00,
2013-03-25 18:43:00,42.0,-99.9,29.43,East,90,17.0,-999.0,-999,-99.99,,,-99.99,,2013-03-25 22:43:00,
2013-03-25 18:53:00,42.0,-99.9,29.43,East,90,17.0,-999.0,-999,-99.99,,,-99.99,,2013-03-25 22:53:00,
2013-03-25 19:03:00,42.0,-99.9,29.43,East,90,17.0,-999.0,-999,-99.99,,,-99.99,,2013-03-25 23:03:00,
2013-03-25 19:12:00,42.0,-99.9,29.43,East,90,17.0,-999.0,-999,-99.99,,,-99.99,,2013-03-25 23:12:00,
2013-03-25 19:23:00,42.0,-99.9,29.43,East,95,14.0,-999.0,-999,-99.99,,,-99.99,,2013-03-25 23:23:00,
2013-03-25 19:33:00,42.0,-99.9,29.43,East,95,14.0,-999.0,-999,-99.99,,,-99.99,,2013-03-25 23:33:00,
2013-03-25 19:43:00,42.0,-99.9,29.43,East,95,14.0,-999.0,-999,-99.99,,,-99.99,,2013-03-25 23:43:00,
2013-03-25 19:53:00,41.0,-99.9,29.43,ENE,69,15.0,-999.0,-999,-99.99,,,-99.99,,2013-03-25 23:53:00,
2013-03-25 20:02:00,41.0,-99.9,29.43,ENE,69,15.0,-999.0,-999,-99.99,,,-99.99,,2013-03-26 00:02:00,
2013-03-25 20:12:00,41.0,-99.9,29.43,ENE,69,15.0,-999.0,-999,-99.99,,,-99.99,,2013-03-26 00:12:00,
2013-03-25 20:23:00,41.0,-99.9,29.44,ENE,66,13.0,-999.0,-999,-99.99,,,-99.99,,2013-03-26 00:23:00,
2013-03-25 20:33:00,41.0,-99.9,29.44,ENE,66,13.0,-999.0,-999,-99.99,,,-99.99,,2013-03-26 00:33:00,
2013-03-25 20:43:00,40.0,-99.9,29.44,ENE,57,13.0,-999.0,-999,-99.99,,,-99.99,,2013-03-26 00:43:00,
2013-03-25 20:53:00,40.0,-99.9,29.44,ENE,57,13.0,-999.0,-999,-99.99,,,-99.99,,2013-03-26 00:53:00,
2013-03-25 21:02:00,40.0,-99.9,29.44,ENE,57,13.0,-999.0,-999,-99.99,,,-99.99,,2013-03-26 01:02:00,
2013-03-25 21:12:00,40.0,-99.9,29.44,ENE,57,13.0,-999.0,-999,-99.99,,,-99.99,,2013-03-26 01:12:00,
2013-03-25 21:23:00,39.0,-99.9,29.44,ENE,65,12.0,-999.0,-999,-99.99,,,-99.99,,2013-03-26 01:23:00,
2013-03-25 21:33:00,39.0,-99.9,29.44,ENE,65,12.0,-999.0,-999,-99.99,,,-99.99,,2013-03-26 01:33:00,
2013-03-25 21:42:00,39.0,-99.9,29.44,ENE,65,12.0,-999.0,-999,-99.99,,,-99.99,,2013-03-26 01:42:00,
2013-03-25 21:53:00,39.0,-99.9,29.44,ENE,57,18.0,-999.0,-999,-99.99,,,-99.99,,2013-03-26 01:53:00,
2013-03-25 22:02:00,39.0,-99.9,29.44,ENE,57,18.0,-999.0,-999,-99.99,,,-99.99,,2013-03-26 02:02:00,
2013-03-25 22:12:00,39.0,-99.9,29.44,ENE,57,18.0,-999.0,-999,-99.99,,,-99.99,,2013-03-26 02:12:00,
2013-03-25 22:23:00,38.0,-99.9,29.43,East,85,12.0,-999.0,-999,-99.99,,,-99.99,,2013-03-26 02:23:00,
2013-03-25 22:32:00,38.0,-99.9,29.43,East,85,12.0,-999.0,-999,-99.99,,,-99.99,,2013-03-26 02:32:00,
2013-03-25 22:43:00,39.0,-99.9,29.43,NE,54,13.0,-999.0,-999,-99.99,,,-99.99,,2013-03-26 02:43:00,
2013-03-25 22:53:00,39.0,-99.9,29.43,NE,54,13.0,-999.0,-999,-99.99,,,-99.99,,2013-03-26 02:53:00,
2013-03-25 23:02:00,39.0,-99.9,29.43,NE,54,13.0,-999.0,-999,-99.99,,,-99.99,,2013-03-26 03:02:00,
2013-03-25 23:12:00,39.0,-99.9,29.43,NE,54,13.0,-999.0,-999,-99.99,,,-99.99,,2013-03-26 03:12:00,
2013-03-25 23:22:00,39.0,-99.9,29.43,ENE,57,13.0,-999.0,-999,-99.99,,,-99.99,,2013-03-26 03:22:00,
2013-03-25 23:34:00,39.0,-99.9,29.43,ENE,57,13.0,-999.0,-999,-99.99,,,-99.99,,2013-03-26 03:34:00,
2013-03-25 23:43:00,39.0,-99.9,29.43,ENE,57,13.0,-999.0,-999,-99.99,,,-99.99,,2013-03-26 03:43:00,
2013-03-25 23:53:00,40.0,-99.9,29.42,NE,56,14.0,-999.0,-999,-99.99,,,-99.99,,2013-03-26 03:53:00,